Terminal Aerodrome Forecast
Issued by NWS

Home | Current Version | Previous Version | Text Only | Print | Product List | Glossary On
Versions: 1 2 3 4 5 6 7 8 9 10 11 12 13
000
FTUS45 KPSR 012300
TAFBLH
TAF
KBLH 012337Z 0200/0224 19012KT P6SM FEW150 BKN250
     FM021500 18015KT P6SM VCTS BKN100CB OVC200
      AMD NOT SKED=

USA.gov is the U.S. government's official web portal to all federal, state and local government web resources and services.